STARLINK-35603, 66141

Orbit data source: Space-Track

STARLINK-35603, 66141 is a payload satellite owned by SpaceX/Seattle (US) in LEO that was launched on Wed, 22 Oct 2025 UTC via an FALCON 9 launch vehicle from the Air Force Western Test Range (AFWTR). Payload-class satellites include a variety of spacecraft equipped with specific instruments for various scientific and technological missions. These include communications satellites like Starlink; space stations such as the ISS; scientific satellites like the Hubble; Earth observation satellites from companies like Planet Labs, Umbra, and HawkEye 360; GPS; miniature CubeSats for education and research; and military/defense satellites.

Loading next visibility...
Identifier
66141, 2025-237AD
Orbit
LEO
Country
Flag of USUS
Related business
Manufacturer
SpaceX/Seattle
Mission
Operational Commercial Communications
Bus & Motor
STARLINK V2MO, Unknown motor
Mass
575 kg wet, ~530 kg dry
Launch date (UTC)
2025-10-22 (4 months ago)
Launch vehicle
FALCON 9
Launch site
Air Force Western Test Range (AFWTR)
Object type
Payload
Rocket body
Debris
Shape & HBR
Box + 2 Pan, 17.7 m
Radar Cross Section
36.964 m²

Expand to show TLE details & history
Last TLE update: 21 hours ago

TLE from 21 hours ago
0 STARLINK-35603
1 66141U 25237AD  26061.29225128  .00026438  00000-0  90093-3 0  9990
2 66141  53.1606  74.2865 0001672  80.8801 279.2389 15.30223683 21471
Epoch: 2026-03-02T07:00Z
TLE epoch observation values (Epoch: 2026-03-02T07:00:50.510Z)
Latitude
-0.00002°
Longitude
168.98827°
Altitude
475.86 km
Speed
7.629 km/s
True Right ascension
04h 57m 08s
True Declination
0° 00' 00"
Sunlit
Object was in daylight at epoch
Visualization orbit readout
Latitude
Unknown
Longitude
Unknown
Altitude
Unknown
Speed
Unknown
Apparent Right ascension
Unknown
Apparent Declination
Unknown
Sunlit
N/A
Visualization observer readout
Local Sidereal Time
07:19:27
Azimuth
Unknown
Elevation
Unknown
Doppler factor
Unknown
Orbital elements
Apogee altitude
476.547 km
Perigee altitude
474.255 km
Semi-major axis
6,853.538 km
Eccentricity
0.00017
Inclination
53.1606°
RAAN
74.2865°
Arg. of periapsis
80.8801°
True anomaly
279.21999°
Mean anomaly
279.2389°
Eccentric anomaly
279.22944°
Mean motion
3.82535 °/min
Orbital period
94.11 mins
BSTAR
0.00090093
Loading maneuver chart data...
Computing Atmospheric mass density...
Loading historical data...
Loading historical data...
Loading historical data...
Loading historical data...
Loading historical data...
Loading historical data...
Loading historical data...

Documentation

Showing up to 5 results
|